Regional Weather Roundup
Issued by NWS

Home | Current Version | Previous Version | Graphics & Text | Print | Product List | Glossary On
Versions: 1 2 3 4 5 6 7 8 9 10 11 12 13 14 15 16 17 18 19 20 21 22 23 24 25 26 27 28 29 30 31 32 33 34 35 36 37 38 39 40 41 42 43 44 45 46 47 48 49 50
000
ASUS43 KDMX 301803
RWRIA

WEATHER ROUNDUP FOR IOWA
NATIONAL WEATHER SERVICE DES MOINES IA
100 PM CDT SAT JUL 30 2016

NOTE: "FAIR" INDICATES FEW OR NO CLOUDS BELOW 12,000 FEET WITH NO
SIGNIFICANT WEATHER AND/OR OBSTRUCTIONS TO VISIBILITY.

* - THESE STATIONS ARE NOT NWS STATIONS...THUS NOT UNDER NWS
QUALITY CONTROL.  THEY ALSO DO NOT REPORT WEATHER SUCH
AS PRECIPITATION OR FOG.

IAZ001>003-012>014-020>022-031>034-043>046-301900-
   NORTHWEST IOWA

CITY           SKY/WX    TMP DP  RH WIND       PRES   REMARKS
CARROLL *      PTSUNNY   77  64  65 CALM      30.03F
CHEROKEE *     MOSUNNY   78  61  55 SW5       30.03S
DENISON *      MOSUNNY   77  64  65 SE6       30.01F
LE MARS *      MOSUNNY   79  61  53 VRB3      30.03S HX  80
SHELDON *      PTSUNNY   75  61  60 VRB7      30.02S
SIOUX CITY     MOSUNNY   79  61  53 SE7       30.01S HX  80
6HR MIN TEMP:  57; 6HR MAX TEMP:  80;

SPENCER        SUNNY     78  59  51 VRB5      30.04S
6HR MIN TEMP:  54; 6HR MAX TEMP:  78;

STORM LAKE *     N/A     75  63  64 SE7       30.04F
$$

IAZ055>058-069>071-079>083-090>094-301900-
   SOUTHWEST IOWA

CITY           SKY/WX    TMP DP  RH WIND       PRES   REMARKS
ATLANTIC *     CLOUDY    75  64  69 CALM      30.03F
CLARINDA *       N/A     79  64  61 MISG      30.05F HX  81
COUNCIL BLFS * CLOUDY    73  64  73 SE6       30.04S
CRESTON *      CLOUDY    75  64  69 CALM      30.05F
HARLAN  *      MOSUNNY   75  66  73 SE6       30.06F
LAMONI         MOSUNNY   76  64  66 CALM      30.03F
6HR MIN TEMP:  64; 6HR MAX TEMP:  77;

RED OAK *      CLOUDY    75  66  73 CALM      30.04R
SHENANDOAH *   PTSUNNY   77  68  73 CALM      30.04S
$$

IAZ047>049-059>061-072>074-084-301900-
   CENTRAL IOWA

CITY           SKY/WX    TMP DP  RH WIND       PRES   REMARKS
AMES           PTSUNNY   75  67  76 CALM      30.03S
6HR MIN TEMP:  64; 6HR MAX TEMP:  76;

ANKENY *         N/A    N/A N/A N/A MISG        N/A
BOONE *        SUNNY     77  63  61 VRB3      30.03S
CHARITON *       N/A    N/A N/A N/A MISG        N/A
DES MOINES     CLOUDY    78  64  61 CALM      30.02F HX  80
6HR MIN TEMP:  67; 6HR MAX TEMP:  80;

GRINNELL*      CLOUDY    74  65  74 NW3       30.04S
KNOXVILLE *    PTSUNNY   75  64  69 VRB5      30.02S
MARSHALLTOWN   PTSUNNY   79  68  69 N5        30.02F HX  81
6HR MIN TEMP:  62; 6HR MAX TEMP:  79;

NEWTON *       CLOUDY    75  68  78 VRB6      30.02F
PELLA *        PTSUNNY   75  66  73 CALM      30.04S
PERRY *        PTSUNNY   77  66  70 CALM      30.03F
$$

IAZ004>006-015-016-023>025-035-036-301900-
   NORTH CENTRAL IOWA

CITY           SKY/WX    TMP DP  RH WIND       PRES   REMARKS
ALGONA *       PTSUNNY   75  63  64 CALM      30.04S
ESTHERVILLE    MOSUNNY   74  58  57 CALM      30.04S
6HR MIN TEMP:  56; 6HR MAX TEMP:  76;

FORT DODGE *   CLOUDY    73  64  73 CALM      30.05S
MASON CITY     PTSUNNY   77  65  66 VRB6      30.04F
6HR MIN TEMP:  62; 6HR MAX TEMP:  77;

FOREST CITY *  PTSUNNY   77  64  65 S5        30.03F
IOWA FALLS *   PTSUNNY   77  65  68 E3        30.05S
$$

IAZ007>011-017>019-026>030-037>042-050>054-066-301900-
   NORTHEAST IOWA

CITY           SKY/WX    TMP DP  RH WIND       PRES   REMARKS
CEDAR RAPIDS   CLOUDY    77  67  71 NE5       30.01S
6HR MIN TEMP:  67; 6HR MAX TEMP:  78;

CHARLES CITY * PTSUNNY   75  66  73 CALM      30.04S
CLINTON *      PTSUNNY   78  67  68 VRB3      30.01S HX  80
DECORAH *      PTSUNNY   73  66  78 CALM      30.04S
DUBUQUE        PTSUNNY   74  67  78 NE9       30.03S
6HR MIN TEMP:  65; 6HR MAX TEMP:  76; 6HR PCP:  0.04;

MONTICELLO *   PTSUNNY   75  68  78 MISG      30.02R
OELWEIN *      PTSUNNY   73  66  78 N3        30.04S
WATERLOO       PTSUNNY   77  64  64 N7        30.01F
6HR MIN TEMP:  65; 6HR MAX TEMP:  80;

$$

IAZ064-065-067-068-078-301900-
   EAST CENTRAL IOWA

CITY           SKY/WX    TMP DP  RH WIND       PRES   REMARKS
DAVENPORT      CLOUDY    76  67  73 CALM      30.01S
6HR MIN TEMP:  67; 6HR MAX TEMP:  78;

IOWA CITY      CLOUDY    78  67  68 NE6       30.02S HX  80
6HR MIN TEMP:  68; 6HR MAX TEMP:  78;

MT. PLEASANT * PTSUNNY   81  68  63 CALM      30.00S HX  84
MUSCATINE *    PTSUNNY   77  66  69 VRB5      30.00S
QUAD CITIES    MOSUNNY   80  67  64 CALM      29.99S HX  82
6HR MIN TEMP:  71; 6HR MAX TEMP:  80;

$$

IAZ062-063-075>077-085>089-095>099-301900-
   SOUTHEAST IOWA

CITY           SKY/WX    TMP DP  RH WIND       PRES   REMARKS
BURLINGTON     CLOUDY    77  67  71 W3        30.00S
6HR MIN TEMP:  69; 6HR MAX TEMP:  77;

FAIRFIELD *    PTSUNNY   77  66  69 VRB5G12   30.02S
KEOKUK *       CLOUDY    77  66  69 SW3       30.00S
CENTERVILLE *    N/A     79  66  65 CALM      30.04F HX  81
OTTUMWA        CLOUDY    76  66  71 N8        30.02S
6HR MIN TEMP:  66; 6HR MAX TEMP:  76;

WASHINGTON *   CLOUDY    77  68  73 N8        30.02S
$$

ABBREVIATIONS USED IN REMARKS
   TC - TEMPERATURES IN CELSIUS
  WCI - WIND CHILL INDEX
   HX - HEAT INDEX
  VSB - VISIBILITY
$$




USA.gov is the U.S. government's official web portal to all federal, state and local government web resources and services.